Regional Weather Roundup
Issued by NWS Bismarck, ND

Home | Current Version | Previous Version | Text Only | Print | Product List | Glossary On
Versions: 1 2 3 4 5 6 7 8 9 10 11 12 13 14 15 16 17 18 19 20 21 22 23 24 25 26 27 28 29 30 31 32 33 34 35 36 37 38 39 40 41 42 43 44 45 46 47 48 49 50
000
ASUS43 KBIS 231110
RWRBIS

NWR BROADCAST TEXT
NATIONAL WEATHER SERVICE BISMARCK ND
600 AM CDT SAT JUL 23 2016

NOTE: "FAIR" INDICATES FEW OR NO CLOUDS BELOW 12,000 FEET WITH NO
SIGNIFICANT WEATHER AND/OR OBSTRUCTIONS TO VISIBILITY.


CITY           SKY/WX    TMP DP  RH WIND       PRES   REMARKS
WILLISTON      PTCLDY    69  62  78 SW10      29.80R
MINOT          CLOUDY    69  63  81 S13       29.77F
MINOT AFB      TSTM      66  63  88 S23G29    29.75F
BISMARCK       CLOUDY    70  63  78 NE9       29.82F
DICKINSON      CLOUDY    64  60  87 E7        29.83R
GARRISON         N/A     68  64  87 E13       29.77F
HETTINGER ARPT CLEAR     64  60  87 SE9       29.81F
JAMESTOWN      CLOUDY    67  64  90 NE7       29.84F
BEACH          FAIR      61  61 100 E3        29.87S
CARRINGTON     PTSUNNY   66  64  94 W10       29.91R
HAZEN          CLOUDY    66  63  88 SE5       29.83F
MANDAN         CLOUDY    68  63  83 E8        29.83F
OAKES            N/A    N/A N/A N/A MISG        N/A
STANLEY        CLOUDY    64  64 100 SE12      29.82F
WATFORD CITY     N/A    N/A N/A N/A MISG        N/A
$$

CITY           SKY/WX    TMP DP  RH WIND       PRES   REMARKS
GRAND FORKS    CLOUDY    71  62  73 S6        29.87R
GRAND FORKS AF CLOUDY    70  62  77 S7        29.89R
DEVILS LAKE    RAIN      69  63  81 S5        29.89F
FARGO          CLOUDY    76  61  59 SE10      29.86R
CAVALIER       FAIR      66  59  77 SE3       29.87S
GRAFTON        FAIR      68  61  77 SE10      29.87F
GWINNER        FAIR      72  70  94 E8        29.85F
LANGDON        FAIR      66  63  88 SE12      29.89F
ROLLA            N/A     66  64  94 S10G16    29.87F
$$

CITY           SKY/WX    TMP DP  RH WIND       PRES   REMARKS
ABERDEEN       CLOUDY    74  68  81 E9        29.79F
MOBRIDGE       CLOUDY    73  66  78 MISG      29.79R
BUFFALO          N/A     66  60  81 S6        29.75F
RAPID CITY     CLOUDY    67  56  67 SW7       29.83F
GLASGOW        CLOUDY    62  54  74 W10       29.84S
SIDNEY         PTCLDY    65  62  90 S6        29.83F
WOLF POINT     CLEAR     67  60  78 SW8       29.83S
GLENDIVE       CLEAR     64  61  90 NE6       29.86S
MILES CITY     CLEAR     68  53  58 NW12      29.89R
BAKER          CLEAR     63  61  93 NE8       29.84S
$$

CITY           SKY/WX    TMP DP  RH WIND       PRES   REMARKS
BILLINGS       PTCLDY    64  43  46 CALM      30.04R
GREAT FALLS    CLEAR     58  41  53 SW15      30.02S
REGINA         CLOUDY    63  59  88 SE18G25   29.72F
ESTEVAN        MOCLDY    64  63  94 W6        29.82F
$$




USA.gov is the U.S. government's official web portal to all federal, state and local government web resources and services.